Wind_Speed
5 4 4 5 5 5 5 5 5 5 5 5 5 5 5 4 4 4 4 5 5 5 5 5 6 6 6 7 7 8 8 9 9 9 9 10 10 10 11 12 13 14 15
5 5 4 5 6 5 5 5 5 5 5 5 5 5 4 4 4 4 5 5 5 5 6 6 7 7 6 7 7 8 8 8 9 9 9 9 10 11 11 12 13 13 14
5 4 4 4 5 5 5 4 4 5 5 5 4 5 4 5 4 4 5 5 6 6 6 6 6 6 6 6 7 7 8 8 9 9 9 9 10 10 11 12 13 14 14
4 4 4 4 5 5 5 5 4 4 4 5 4 5 5 5 5 5 5 6 7 7 7 6 6 6 6 6 7 7 8 9 9 10 10 11 11 11 11 12 13 13 14
4 4 4 5 5 5 5 4 4 4 4 5 4 4 5 5 5 6 6 7 7 6 6 6 6 7 7 7 8 8 9 9 9 9 10 11 11 12 12 13 13 13 13
4 4 5 5 5 5 5 4 4 4 4 4 4 4 4 5 5 6 6 6 6 6 6 6 6 7 7 8 8 9 9 9 9 8 9 9 10 11 12 13 14 14 14
4 4 5 5 5 5 4 4 4 4 4 4 4 4 4 5 5 5 5 5 5 6 6 6 6 6 7 7 8 8 8 8 9 9 9 10 11 11 11 12 13 14 14
4 5 5 5 5 5 4 3 4 4 4 5 4 4 4 5 5 5 5 5 5 6 6 6 7 7 7 7 8 8 7 8 8 9 10 10 11 11 11 12 13 14 15
6 5 5 5 5 5 4 4 4 4 4 4 5 5 5 5 5 5 5 5 5 6 7 7 7 7 7 7 7 7 7 8 9 10 10 11 11 11 11 12 13 13 14
7 7 6 5 5 5 5 5 5 5 5 5 6 6 6 5 5 5 5 5 6 6 7 7 7 7 7 7 7 8 8 9 9 10 10 11 11 12 12 13 13 14 14
8 8 7 7 6 6 6 6 6 6 6 6 6 6 6 6 5 5 5 6 6 7 7 7 8 8 8 8 9 9 9 9 10 10 11 11 12 13 13 13 14 14 15
9 8 8 8 8 7 7 6 6 6 7 7 7 6 6 6 6 6 6 7 7 7 7 8 8 8 8 9 9 10 10 11 11 11 11 12 13 13 14 14 14 15 16
9 9 8 8 8 8 7 7 7 7 8 8 8 7 7 7 7 7 7 8 8 9 9 9 9 9 9 10 10 10 11 11 12 12 13 13 14 15 16 16 16 17 18
10 10 9 8 9 9 8 8 8 8 8 8 8 8 8 8 7 8 8 9 10 10 10 10 10 10 11 11 11 11 12 12 13 14 14 15 15 16 17 18 18 18 19
10 10 9 9 9 9 9 9 9 9 9 9 9 9 9 9 9 9 9 10 11 11 11 11 12 12 12 13 13 13 14 14 14 15 15 16 17 18 18 19 19 19 20
11 11 10 10 10 10 10 10 10 10 9 10 10 9 10 10 10 11 12 12 12 13 13 13 13 14 14 15 15 15 15 16 16 17 18 18 19 19 20 21 21 22 23
12 11 11 11 11 11 11 11 11 11 11 11 12 12 11 12 12 13 13 13 14 14 14 14 15 15 15 16 16 16 16 17 18 18 19 19 20 21 22 23 23 25 26
12 12 12 12 12 12 12 12 12 12 12 12 13 13 13 13 14 15 14 14 15 15 15 16 16 16 16 17 17 17 17 18 18 19 20 21 22 23 24 24 25 26 27
13 12 13 12 13 13 12 13 13 13 13 13 14 14 14 15 15 15 15 16 16 16 16 16 17 17 18 18 19 19 19 20 21 22 22 23 24 25 26 27 28 29 30
14 14 13 13 14 14 14 14 14 15 15 15 15 15 16 16 16 16 17 17 17 17 17 18 18 19 19 19 20 20 21 22 23 23 24 25 26 27 28 30 31 31 31
15 14 14 15 15 14 14 15 15 16 16 16 16 16 16 17 17 17 17 18 18 18 19 19 19 20 20 20 21 21 22 23 24 25 25 27 28 29 31 31 31 31 31
16 16 15 15 15 15 15 15 15 16 17 17 17 17 18 17 17 18 18 18 19 20 20 20 20 20 21 21 22 22 23 24 25 26 27 29 30 31 32 32 32 32 33
17 16 16 16 16 16 17 17 16 16 17 18 18 19 18 18 19 19 20 20 20 20 20 21 21 22 23 23 24 24 25 26 26 28 29 30 31 33 33 33 34 34 35
18 18 18 18 18 18 18 18 18 19 18 19 19 19 19 20 20 19 19 20 20 21 21 21 22 23 24 25 25 25 26 27 28 30 31 31 32 34 35 35 36 37 38
18 18 19 19 19 19 20 19 19 19 19 19 19 20 20 19 19 19 20 20 21 22 22 22 23 24 25 25 26 27 27 29 30 31 32 33 34 35 36 37 38 39 40
19 19 19 19 20 20 20 20 20 20 20 20 20 20 20 20 20 20 21 21 22 23 24 24 25 25 26 26 27 28 29 30 32 33 34 35 36 37 37 39 40 40 40
Wind_Direction
264 265 270 266 267 277 278 279 276 281 281 280 277 275 274 267 264 258 260 262 265 267 271 273 276 281 280 278 277 276 277 276 277 275 275 270 268 266 263 262 259 258 260
263 258 261 263 266 273 277 278 281 279 276 279 277 274 272 267 265 260 268 274 276 271 275 281 282 285 280 276 276 277 276 272 272 274 273 270 267 269 269 266 262 263 261
275 278 274 274 266 270 276 280 281 280 276 278 284 281 275 270 270 271 279 282 282 280 282 284 284 284 277 274 277 279 276 273 271 272 270 270 268 269 270 268 268 269 266
274 277 277 283 275 270 274 281 286 281 281 282 286 283 274 266 263 270 279 283 285 283 283 285 282 280 278 278 280 282 286 283 278 275 276 275 272 272 272 271 274 274 272
280 285 287 287 287 280 272 275 287 286 292 292 293 291 281 274 270 272 277 284 287 281 283 287 284 281 282 283 282 285 285 285 285 281 278 278 277 277 276 275 278 277 276
283 286 288 288 288 285 270 271 283 289 293 295 297 295 286 289 279 279 283 286 285 283 285 288 286 282 284 284 285 288 286 286 287 288 287 286 285 280 277 278 277 278 277
279 285 290 293 290 285 272 271 276 281 289 296 300 293 286 294 290 290 289 289 287 288 288 292 292 290 289 287 287 290 289 286 288 290 290 291 291 285 279 278 280 280 277
274 283 293 300 296 293 280 274 278 280 286 297 302 298 293 294 292 295 293 290 285 289 293 296 298 298 294 289 290 293 293 291 289 287 290 293 293 287 283 282 282 282 283
273 275 279 291 295 294 286 277 280 285 281 287 295 297 297 299 299 298 299 299 295 296 299 301 303 303 297 290 290 292 292 293 292 292 293 294 297 293 287 285 285 286 287
269 268 271 278 288 289 285 283 282 282 281 283 289 293 291 292 295 299 301 304 303 302 302 302 304 303 297 292 291 291 292 293 295 295 296 296 297 295 289 288 287 288 288
266 264 266 272 279 282 280 279 285 278 279 284 289 292 288 287 287 289 294 297 297 298 300 301 302 301 299 296 292 292 293 292 295 297 298 298 298 298 292 289 289 289 289
264 261 264 269 274 278 277 274 279 276 276 280 285 288 288 288 286 285 292 297 297 299 303 304 303 303 302 301 298 295 295 295 297 299 299 298 299 300 299 293 292 291 291
261 260 265 270 272 274 275 274 273 271 273 279 284 283 283 288 288 287 290 294 295 295 297 298 298 299 300 300 299 297 296 296 297 297 297 298 299 300 300 297 292 291 291
261 260 264 270 271 271 272 270 270 271 274 279 282 281 283 287 287 285 285 291 294 295 294 295 294 296 299 301 301 300 299 298 298 299 299 300 300 301 302 301 297 294 294
261 263 264 267 267 269 268 269 270 270 272 277 280 283 286 286 287 284 286 288 290 293 296 295 295 296 297 299 300 300 300 300 299 299 300 300 301 301 301 302 302 298 296
258 260 263 263 264 266 265 266 267 269 270 274 276 283 284 284 288 292 292 290 291 292 292 293 293 293 294 296 297 297 298 298 299 299 299 300 300 301 302 302 302 300 297
259 260 260 262 266 266 265 265 267 269 272 274 276 279 284 285 287 289 288 288 289 291 291 289 290 292 293 295 296 296 296 297 299 300 300 300 301 301 301 301 300 300 298
258 260 261 263 266 266 265 264 265 268 273 275 277 279 281 285 288 289 287 288 289 290 291 289 289 291 294 294 295 295 295 298 299 300 300 300 301 301 301 301 301 300 299
256 260 260 262 264 265 265 266 267 267 271 275 276 278 281 284 287 287 287 289 289 290 290 289 290 293 293 294 295 295 295 297 299 300 301 301 303 303 302 302 302 302 301
258 261 261 263 264 263 265 268 268 268 270 273 276 279 283 285 285 286 287 288 288 288 290 291 291 292 292 293 295 295 295 297 300 301 303 303 304 303 304 304 303 302 301
260 262 263 264 265 263 265 267 271 272 273 275 277 279 283 284 285 286 288 288 288 288 289 290 292 292 293 293 294 295 295 297 299 301 303 303 304 305 305 305 304 303 302
261 262 263 264 264 265 267 268 271 271 273 275 276 279 283 285 287 289 289 289 288 289 287 288 290 291 293 293 293 293 295 297 299 300 302 303 304 304 304 304 304 303 303
260 258 261 261 264 266 268 270 272 272 274 276 279 280 282 284 286 289 290 290 289 288 287 287 290 291 291 292 293 293 295 296 298 300 302 303 303 304 304 304 304 304 303
260 258 258 259 262 267 267 268 271 274 277 278 279 281 283 284 285 287 289 291 291 290 290 289 290 291 292 292 294 294 295 297 298 300 302 303 304 304 304 304 304 304 304
259 257 259 261 263 266 269 271 274 277 278 279 280 281 283 284 284 287 289 291 291 289 289 290 292 293 294 294 294 294 295 297 299 301 302 303 304 305 305 305 305 304 304
258 258 260 262 263 266 269 272 274 277 278 279 281 284 283 283 285 288 289 290 291 292 291 291 293 294 294 295 295 296 297 297 298 300 301 303 305 305 305 305 305 305 304
Height
5876 5875 5874 5874 5874 5874 5873 5873 5872 5872 5871 5871 5870 5870 5870 5869 5869 5869 5869 5869 5869 5868 5868 5868 5867 5867 5866 5866 5866 5865 5865 5865 5864 5864 5863 5863 5863 5863 5863 5864 5864 5864 5864
5874 5873 5873 5873 5873 5872 5872 5871 5871 5870 5870 5869 5869 5869 5869 5868 5868 5868 5868 5868 5867 5867 5867 5866 5866 5865 5864 5864 5864 5863 5863 5862 5861 5861 5861 5860 5860 5860 5860 5860 5861 5860 5860
5873 5872 5872 5871 5871 5871 5870 5870 5870 5869 5869 5868 5868 5868 5867 5867 5867 5867 5867 5866 5866 5865 5865 5864 5864 5863 5863 5862 5862 5861 5860 5860 5859 5858 5858 5858 5857 5857 5857 5857 5857 5857 5857
5871 5871 5871 5870 5870 5869 5869 5869 5868 5868 5868 5867 5867 5867 5866 5866 5866 5866 5865 5865 5864 5864 5863 5862 5862 5861 5861 5860 5859 5859 5858 5857 5857 5856 5856 5855 5854 5854 5854 5853 5853 5853 5853
5870 5870 5870 5869 5869 5868 5868 5868 5867 5867 5867 5866 5866 5865 5865 5865 5864 5864 5864 5863 5863 5862 5861 5860 5860 5859 5859 5858 5857 5856 5856 5855 5854 5854 5853 5852 5852 5851 5851 5850 5850 5849 5849
5869 5869 5868 5868 5867 5867 5867 5866 5866 5866 5866 5865 5865 5864 5864 5864 5863 5863 5862 5862 5861 5860 5859 5859 5858 5857 5856 5855 5855 5854 5853 5853 5852 5851 5851 5850 5849 5848 5847 5847 5846 5846 5845
5868 5867 5867 5867 5866 5866 5865 5865 5865 5865 5865 5864 5864 5863 5863 5863 5862 5861 5861 5860 5859 5858 5858 5857 5856 5855 5854 5853 5853 5852 5851 5851 5850 5849 5849 5848 5847 5845 5844 5843 5843 5842 5841
5866 5866 5866 5865 5865 5864 5864 5864 5864 5864 5864 5863 5863 5863 5862 5862 5861 5860 5859 5859 5858 5857 5856 5855 5854 5853 5852 5851 5851 5850 5849 5849 5848 5847 5846 5845 5844 5842 5841 5840 5839 5838 5837
5865 5864 5864 5864 5863 5863 5863 5863 5863 5862 5862 5862 5862 5862 5861 5860 5859 5859 5858 5857 5856 5855 5855 5854 5853 5851 5850 5849 5849 5848 5848 5847 5846 5845 5844 5842 5841 5839 5838 5837 5836 5835 5833
5863 5863 5863 5862 5862 5862 5861 5861 5861 5861 5861 5860 5860 5860 5859 5859 5858 5858 5857 5856 5855 5854 5853 5852 5851 5850 5849 5848 5847 5846 5846 5845 5844 5842 5841 5840 5838 5836 5835 5834 5832 5831 5829
5861 5861 5861 5861 5860 5860 5860 5860 5859 5859 5859 5859 5858 5858 5857 5857 5857 5856 5855 5855 5854 5853 5852 5850 5849 5848 5847 5846 5845 5844 5843 5842 5841 5840 5838 5837 5835 5834 5832 5831 5829 5827 5826
5859 5859 5859 5859 5859 5858 5858 5858 5858 5857 5857 5857 5857 5856 5856 5855 5855 5854 5854 5853 5852 5851 5850 5849 5847 5846 5845 5844 5843 5842 5841 5840 5838 5837 5836 5834 5833 5831 5829 5827 5826 5824 5822
5857 5857 5857 5857 5856 5856 5856 5856 5856 5856 5855 5855 5855 5854 5854 5853 5853 5852 5852 5851 5850 5849 5848 5847 5845 5844 5843 5842 5841 5840 5838 5837 5836 5834 5833 5831 5829 5828 5826 5824 5822 5820 5818
5854 5854 5854 5854 5854 5854 5854 5854 5853 5853 5853 5853 5852 5852 5852 5851 5850 5850 5849 5848 5847 5846 5845 5844 5843 5842 5841 5839 5838 5837 5835 5834 5832 5831 5829 5827 5826 5824 5822 5820 5817 5815 5814
5851 5851 5851 5852 5852 5852 5851 5851 5851 5851 5851 5851 5850 5850 5849 5849 5848 5847 5847 5846 5846 5844 5843 5841 5840 5839 5838 5836 5835 5833 5832 5830 5829 5827 5825 5824 5822 5819 5817 5815 5813 5811 5809
5848 5848 5849 5849 5849 5849 5849 5849 5849 5848 5848 5848 5847 5847 5846 5846 5845 5845 5844 5843 5842 5841 5840 5838 5837 5836 5834 5833 5831 5830 5828 5826 5825 5823 5821 5819 5817 5815 5813 5810 5808 5806 5803
5845 5845 5845 5845 5846 5846 5846 5846 5846 5845 5845 5845 5844 5844 5844 5843 5842 5842 5841 5840 5839 5838 5836 5835 5833 5832 5831 5829 5827 5826 5824 5822 5820 5818 5816 5814 5812 5810 5808 5805 5803 5800 5797
5841 5842 5842 5842 5842 5842 5842 5842 5842 5842 5842 5842 5841 5841 5840 5840 5839 5838 5837 5836 5835 5834 5833 5831 5830 5828 5826 5825 5823 5821 5819 5818 5815 5813 5811 5809 5806 5804 5802 5799 5796 5793 5790
5838 5838 5838 5839 5839 5839 5839 5839 5839 5839 5838 5838 5838 5837 5836 5836 5835 5834 5833 5832 5831 5830 5828 5827 5825 5824 5822 5820 5818 5816 5814 5813 5810 5808 5805 5803 5800 5798 5795 5792 5789 5785 5782
5834 5834 5834 5834 5835 5835 5835 5835 5835 5835 5834 5834 5834 5833 5832 5831 5831 5830 5828 5827 5826 5825 5824 5822 5821 5819 5817 5815 5813 5811 5809 5807 5805 5802 5800 5797 5794 5791 5788 5785 5781 5778 5774
5829 5830 5830 5830 5830 5830 5831 5831 5831 5830 5830 5830 5829 5828 5828 5827 5826 5825 5824 5822 5821 5820 5818 5817 5815 5814 5812 5810 5808 5806 5804 5801 5799 5796 5794 5791 5787 5784 5781 5777 5773 5769 5766
5825 5825 5825 5826 5826 5826 5826 5826 5826 5826 5825 5825 5824 5824 5823 5822 5821 5820 5819 5817 5816 5814 5813 5811 5810 5808 5806 5804 5802 5800 5798 5796 5793 5791 5787 5784 5780 5777 5773 5769 5765 5761 5758
5820 5820 5821 5821 5821 5821 5821 5821 5821 5821 5821 5820 5819 5819 5818 5817 5816 5815 5813 5812 5810 5808 5807 5806 5804 5803 5801 5798 5796 5794 5792 5789 5787 5784 5781 5777 5773 5769 5764 5760 5756 5753 5749
5815 5815 5816 5816 5816 5816 5816 5816 5816 5816 5815 5815 5814 5814 5813 5812 5810 5809 5808 5806 5804 5803 5801 5800 5798 5796 5794 5792 5790 5788 5785 5782 5779 5776 5773 5769 5765 5760 5756 5752 5747 5743 5739
5810 5810 5810 5811 5811 5811 5811 5811 5811 5810 5810 5809 5808 5808 5807 5806 5805 5804 5802 5801 5799 5797 5795 5793 5792 5789 5787 5785 5782 5780 5778 5775 5772 5769 5765 5761 5757 5752 5747 5742 5738 5733 5728
5804 5804 5805 5805 5805 5806 5806 5806 5805 5805 5805 5804 5803 5802 5801 5800 5799 5798 5797 5795 5793 5792 5789 5787 5785 5783 5780 5777 5775 5773 5770 5767 5764 5761 5757 5752 5748 5743 5739 5733 5728 5723 5718